Home > Weather > Brockton > Past weeks

Flag for USA Weather for the Past 2 Weeks in Brockton, Massachusetts, USA

Now
49 °F

Cool.


Feels Like: 44 °F
Forecast: 44 / 56 °F
Wind: 14 mph from East

Location: East Milton

Current Time: May 6, 2016 at 5:21:43 PM

Latest Report: May 6, 2016 at 4:54 PM


Visibility: N/A

Pressure: 29.87 "Hg

Humidity: 77%

Dew Point: 42 °F

Location of BrocktonLocation

Historic Weather in Brockton — Graph

°F

Brockton Temperature Yesterday

Maximum temperature yesterday: 43 °F (at 10:54 AM)
Minimum temperature yesterday: 41 °F (at 12:54 AM)
Average temperature yesterday: 41 °F

High & Low Weather Summary for the Past Weeks

 TemperatureHumidityPressure
High78 °F (Apr 22, 1:54 PM)100% (Apr 23, 2:54 AM)30.27 "Hg (Apr 23, 2:54 AM)
Low32 °F (Apr 27, 4:54 AM)12% (Apr 21, 3:54 PM)29.67 "Hg (May 6, 2:54 AM)
Average47 °F69%29.97 "Hg
* Reported Apr 21 3:54 PM — May 6 3:54 PM, Brockton, Weather by CustomWeather, © 2016

Note: Actual official high and low records may vary slightly from our data, if they occured in-between our weather recording intervals... More about our weather records

Advertising

Brockton Weather History for the Previous 24 Hours

Scroll right to see more
 ConditionsComfort  
Time TempWeatherWind HumidityBarometerVisibility
3:54 PM
Fri, May 6
50 °FCool.17 mph77%29.88 "HgN/A
2:54 PM51 °FCool.15 mph74%29.89 "HgN/A
1:54 PM51 °FCool.17 mph74%29.88 "HgN/A
12:54 PM52 °FCool.15 mph72%29.87 "HgN/A
11:54 AM50 °FCool.15 mph77%29.87 "HgN/A
10:54 AM49 °FCool.8 mph84%29.86 "HgN/A
9:54 AM48 °FCool.14 mph83%29.84 "HgN/A
8:54 AM47 °FCool.13 mph86%29.82 "HgN/A
7:54 AM46 °FCool.14 mph89%29.80 "HgN/A
6:54 AM45 °FCool.8 mph93%29.78 "HgN/A
5:54 AM44 °FQuite cool.8 mph93%29.76 "HgN/A
4:54 AM44 °FQuite cool.8 mph93%29.72 "HgN/A
3:54 AM43 °FQuite cool.12 mph97%29.70 "HgN/A
2:54 AM43 °FQuite cool.14 mph97%29.67 "HgN/A
1:54 AM42 °FQuite cool.16 mph100%29.68 "HgN/A
12:54 AM42 °FQuite cool.17 mph100%29.70 "HgN/A
11:54 PM
Thu, May 5
42 °FQuite cool.12 mph100%29.72 "HgN/A
10:54 PM42 °FQuite cool.9 mph100%29.72 "HgN/A
9:54 PM42 °FQuite cool.15 mph100%29.70 "HgN/A
8:54 PM42 °FQuite cool.18 mph100%29.68 "HgN/A
7:54 PM41 °FQuite cool.16 mph100%29.71 "HgN/A
6:54 PM41 °FQuite cool.17 mph100%29.72 "HgN/A
5:54 PM41 °FQuite cool.20 mph100%29.72 "HgN/A
Weather by CustomWeather, © 2016

See weather overviewHow to use our weather pages